Location: St Paul
(33.9360°N, 83.4200°W)
Time: 02:37:33
(UTC-04:00)

Meteor 1-16 Rocket - Pass Details

Date: 06 October 2017
Orbit: 790 x 908 km, 81.2° (Epoch: 21 October)

Event Time Altitude Azimuth Distance (km) Brightness Sun altitude
Rises 20:19:00 0° 176° (S) 3,321 7.2 -15.0°
Reaches altitude 10° 20:21:26 10° 172° (S) 2,380 6.4 -15.5°
Maximum altitude 20:26:40 57° 95° (E) 929 4.1 -16.5°
Drops below altitude 10° 20:31:51 10° 17° (NNE) 2,359 6.4 -17.6°
Sets 20:34:15 0° 14° (NNE) 3,291 7.2 -18.1°
